Regional Weather Roundup
Issued by NWS Little Rock, AR

Home | Current Version | Previous Version | Graphics & Text | Print | Product List | Glossary On
Versions: 1 2 3 4 5 6 7 8 9 10 11 12 13 14 15 16 17 18 19 20 21 22 23 24 25 26 27 28 29 30 31 32 33 34 35 36 37 38 39 40 41 42 43 44 45 46 47 48 49 50
000
ASUS44 KLZK 312205
RWRLZK

WEATHER ROUNDUP FOR ARKANSAS
NATIONAL WEATHER SERVICE LITTLE ROCK AR
500 PM CDT SUN AUG 31 2014

NOTE: "FAIR" INDICATES FEW OR NO CLOUDS BELOW 12,000 FEET WITH NO
SIGNIFICANT WEATHER AND/OR OBSTRUCTIONS TO VISIBILITY.

ARZ001-003-010-029-312300-
NORTHWEST ARKANSAS

CITY           SKY/WX    TMP DP  RH WIND       PRES   REMARKS
FAYETTEVILLE   MOSUNNY   87  68  52 S16       29.93F HX  90
FORT SMITH     SUNNY     93  69  45 S10       29.89F HX  98
HARRISON       SUNNY     87  69  54 S14G21    29.95F HX  91
BENTONVILLE    MOSUNNY   90  66  45 SW16      29.94F HX  92
ROGERS         PTSUNNY   90  64  42 S18       29.93F HX  91
HIGHFILL       SUNNY     90  67  46 S18G24    29.92F HX  93
SPRINGDALE     MOSUNNY   88  68  51 S12G20    29.95F HX  91
$$

ARZ004-005-016-312300-
NORTH CENTRAL ARKANSAS

CITY           SKY/WX    TMP DP  RH WIND       PRES   REMARKS
BATESVILLE     MOSUNNY   88  72  58 S10       29.96S HX  94
FLIPPIN        MOSUNNY   88  66  48 SE9       29.94S HX  90
MTN HOME       MOSUNNY   88  69  53 S10G18    29.93F HX  92
$$

ARZ040-041-312300-
WEST CENTRAL ARKANSAS

CITY           SKY/WX    TMP DP  RH WIND       PRES   REMARKS
MENA           MOSUNNY   88  73  62 SE7       29.97F HX  96
MOUNT IDA      MOSUNNY   84  73  69 VRB3      29.95F HX  90
$$

ARZ009-017-025-026-028-312300-
NORTHEAST ARKANSAS

CITY           SKY/WX    TMP DP  RH WIND       PRES   REMARKS
CORNING        LGT RAIN  88  73  62 S14       29.95S HX  96
JONESBORO      PTSUNNY   86  72  62 S10       29.96S HX  92
NEWPORT        SUNNY     89  74  61 S15       29.97S HX  97
WALNUT RIDGE   MOSUNNY   88  70  55 S16       29.94S HX  92
BLYTHEVILLE    MOSUNNY   86  73  65 SW7       29.98S HX  93
$$

ARZ022-023-033-042-044-312300-
CENTRAL ARKANSAS

CITY           SKY/WX    TMP DP  RH WIND       PRES   REMARKS
LITTLE ROCK    MOSUNNY   85  72  65 S9        29.98S HX  91
N LITTLE ROCK  MOSUNNY   85  75  72 S8        29.98S HX  92
JACKSONVILLE   MOSUNNY   88  74  62 S9        29.98S HX  97
SEARCY         MOSUNNY   87  74  65 MISG      29.98S HX  95
HOT SPRINGS    MOSUNNY   85  72  65 S7        29.98S HX  91
RUSSELLVILLE   PTSUNNY   87  72  60 VRB7      29.94F HX  93
CLINTON        FAIR      88  75  66 S8        29.97S HAZE    HX  97
$$

ARZ036-312300-
EAST ARKANSAS

CITY           SKY/WX    TMP DP  RH WIND       PRES   REMARKS
WEST MEMPHIS   MOSUNNY   86  74  67 S10       29.98S HX  94
$$

ARZ050-053-066-070-073-312300-
SOUTHWEST ARKANSAS

CITY           SKY/WX    TMP DP  RH WIND       PRES   REMARKS
ARKADELPHIA    FAIR      90  76  63 VRB3      29.96F HX 101
CAMDEN         MOSUNNY   90  72  55 SW8       29.96F HX  96
TEXARKANA      SUNNY     92  69  47 S8        29.93F HX  97
EL DORADO      LGT RAIN  77  74  90 S6        30.00R
DE QUEEN       SUNNY     90  72  55 S9        29.91F HX  97
$$

ARZ056-057-069-312300-
SOUTHEAST ARKANSAS

CITY           SKY/WX    TMP DP  RH WIND       PRES   REMARKS
PINE BLUFF     PTSUNNY   85  73  67 S10       29.98F HX  91
STUTTGART      MOSUNNY   86  72  62 SW7       29.99F HX  92
MONTICELLO     MOSUNNY   88  72  58 S9        29.99F HX  94

$$




USA.gov is the U.S. government's official web portal to all federal, state and local government web resources and services.